Year,Month,Day,Hour,Minute,Value (Times are PST for temperature in C)
2007,02,01,00,00,-1.40
2007,02,01,00,01,-1.40
2007,02,01,00,02,-1.40
2007,02,01,00,03,-1.40
2007,02,01,00,04,-1.40
2007,02,01,00,05,-1.50
2007,02,01,00,06,-1.50
2007,02,01,00,07,-1.50
2007,02,01,00,08,-1.50
2007,02,01,00,09,-1.50
2007,02,01,00,10,-1.40
2007,02,01,00,11,-1.40
2007,02,01,00,12,-1.40
2007,02,01,00,13,-1.40
2007,02,01,00,14,-1.40
2007,02,01,00,15,-1.40
2007,02,01,00,16,-1.40
2007,02,01,00,17,-1.40
2007,02,01,00,18,-1.40
2007,02,01,00,19,-1.40
2007,02,01,00,20,-1.40
2007,02,01,00,21,-1.40
2007,02,01,00,22,-1.40
2007,02,01,00,23,-1.40
2007,02,01,00,24,-1.40
2007,02,01,00,25,-1.40
2007,02,01,00,26,-1.40
2007,02,01,00,27,-1.40
2007,02,01,00,28,-1.40
2007,02,01,00,29,-1.40
2007,02,01,00,30,-1.40
2007,02,01,00,31,-1.40
2007,02,01,00,32,-1.40
2007,02,01,00,33,-1.40
2007,02,01,00,34,-1.40
2007,02,01,00,35,-1.40
2007,02,01,00,36,-1.40
2007,02,01,00,37,-1.40
2007,02,01,00,38,-1.40
2007,02,01,00,39,-1.40
2007,02,01,00,40,-1.40
2007,02,01,00,41,-1.40
2007,02,01,00,42,-1.40
2007,02,01,00,43,-1.40
2007,02,01,00,44,-1.40
2007,02,01,00,45,-1.40
2007,02,01,00,46,-1.40
2007,02,01,00,47,-1.40
2007,02,01,00,48,-1.40
2007,02,01,00,49,-1.40
2007,02,01,00,50,-1.40
2007,02,01,00,51,-1.40
2007,02,01,00,52,-1.40
2007,02,01,00,53,-1.40
2007,02,01,00,54,-1.40
2007,02,01,00,55,-1.40
2007,02,01,00,56,-1.30
2007,02,01,00,57,-1.30
2007,02,01,00,58,-1.30
2007,02,01,00,59,-1.20
2007,02,01,01,00,-1.30
2007,02,01,01,01,-1.30
2007,02,01,01,02,-1.30
2007,02,01,01,03,-1.30
2007,02,01,01,04,-1.30
2007,02,01,01,05,-1.30
2007,02,01,01,06,-1.30
2007,02,01,01,07,-1.30
2007,02,01,01,08,-1.30
2007,02,01,01,09,-1.30
2007,02,01,01,10,-1.40
2007,02,01,01,11,-1.40
2007,02,01,01,12,-1.40
2007,02,01,01,13,-1.40
2007,02,01,01,14,-1.40
2007,02,01,01,15,-1.40
2007,02,01,01,16,-1.40
2007,02,01,01,17,-1.40
2007,02,01,01,18,-1.40
2007,02,01,11,02,9.00
2007,02,01,11,03,9.00
2007,02,01,11,04,9.00
2007,02,01,11,05,9.00
2007,02,01,11,06,9.00
2007,02,01,11,07,9.00
2007,02,01,11,08,9.00
2007,02,01,11,09,9.00
2007,02,01,11,10,9.00
2007,02,01,11,11,9.00
2007,02,01,11,12,9.10
2007,02,01,11,13,9.20
2007,02,01,11,14,9.20
2007,02,01,11,15,9.20
2007,02,01,11,16,9.20
2007,02,01,11,17,9.20
2007,02,01,11,18,9.30
2007,02,01,11,19,9.30
2007,02,01,11,20,9.30
2007,02,01,11,21,9.40
2007,02,01,11,22,9.40
2007,02,01,11,23,9.30
2007,02,01,11,24,9.20
2007,02,01,11,25,9.20
2007,02,01,11,26,9.20
2007,02,01,11,27,9.20
2007,02,01,11,28,9.20
2007,02,01,11,29,9.20
2007,02,01,11,30,9.20
2007,02,01,11,31,9.30
2007,02,01,11,32,9.30
2007,02,01,11,33,9.30
2007,02,01,11,34,9.30
2007,02,01,11,35,9.30
2007,02,01,11,36,9.30
2007,02,01,11,37,9.30
2007,02,01,11,38,9.40
2007,02,01,11,39,9.30
2007,02,01,11,40,9.40
2007,02,01,11,41,9.50
2007,02,01,11,42,9.60
2007,02,01,11,43,9.60
2007,02,01,11,44,9.50
2007,02,01,11,45,9.50
2007,02,01,11,46,9.60
2007,02,01,11,47,9.60
2007,02,01,11,48,9.50
2007,02,01,11,49,9.50
2007,02,01,11,50,9.40
2007,02,01,11,51,9.40
2007,02,01,11,52,9.50
2007,02,01,11,53,9.50
2007,02,01,11,54,9.60
2007,02,01,11,55,9.70
2007,02,01,11,56,9.70
2007,02,01,11,57,9.70
2007,02,01,11,58,9.80
2007,02,01,11,59,9.90
2007,02,01,12,00,9.90
2007,02,01,12,01,9.80
2007,02,01,12,02,9.80
2007,02,01,12,03,9.90
2007,02,01,12,04,9.90
2007,02,01,12,05,9.90
2007,02,01,12,06,9.90
2007,02,01,12,07,9.90
2007,02,01,12,08,9.80
2007,02,01,12,09,9.70
2007,02,01,12,10,9.70
2007,02,01,12,11,9.70
2007,02,01,12,12,9.70
2007,02,01,12,13,9.70
2007,02,01,12,14,9.70
2007,02,01,12,15,9.70
2007,02,01,12,16,9.70
2007,02,01,12,17,9.70
2007,02,01,12,18,9.70
2007,02,01,12,19,9.70
2007,02,01,12,20,9.70
2007,02,01,12,21,9.70
2007,02,01,12,22,9.70
2007,02,01,12,23,9.80
2007,02,01,12,24,9.80
2007,02,01,12,25,9.80
2007,02,01,12,26,9.90
2007,02,01,12,27,9.90
2007,02,01,12,28,9.90
2007,02,01,12,29,9.90
2007,02,01,12,30,9.90
2007,02,01,12,31,9.90
2007,02,01,12,32,9.90
2007,02,01,12,33,9.90
2007,02,01,12,34,9.90
2007,02,01,12,35,9.90
2007,02,01,12,36,9.90
2007,02,01,12,37,9.90
2007,02,01,12,38,9.90
2007,02,01,12,39,9.90
2007,02,01,12,40,9.90
2007,02,01,12,41,9.90
2007,02,01,12,42,9.90
2007,02,01,12,43,9.90
2007,02,01,12,44,10.00
2007,02,01,12,45,10.10
2007,02,01,12,46,10.10
2007,02,01,12,47,10.10
2007,02,01,12,48,10.10
2007,02,01,12,49,10.10
2007,02,01,12,50,10.10
2007,02,01,12,51,10.10
2007,02,01,12,52,10.10
2007,02,01,12,53,10.20
2007,02,01,12,54,10.20
2007,02,01,12,55,10.20
2007,02,01,12,56,10.20
2007,02,01,12,57,10.20
2007,02,01,12,58,10.20
2007,02,01,12,59,10.20
2007,02,01,13,00,10.20
2007,02,01,13,01,10.20
2007,02,01,13,02,10.30
2007,02,01,13,03,10.30
2007,02,01,13,04,10.20
2007,02,01,13,05,10.20
2007,02,01,13,06,10.30
2007,02,01,13,07,10.30
2007,02,01,13,08,10.30
2007,02,01,13,09,10.30
2007,02,01,13,10,10.40
2007,02,01,13,11,10.40
2007,02,01,13,12,10.50
2007,02,01,13,13,10.60
2007,02,01,13,14,10.60
2007,02,01,13,15,10.60
2007,02,01,13,16,10.60
2007,02,01,13,17,10.70
2007,02,01,13,18,10.70
2007,02,01,13,19,10.70
2007,02,01,13,20,10.70
2007,02,01,13,21,10.70
2007,02,01,13,22,10.80
2007,02,01,13,23,10.80
2007,02,01,13,24,10.80
2007,02,01,13,25,10.80
2007,02,01,13,26,10.80
2007,02,01,13,27,10.80
2007,02,01,13,28,10.80
2007,02,01,13,29,10.80
2007,02,01,13,30,10.80
2007,02,01,13,31,10.80
2007,02,01,13,32,10.80
2007,02,01,13,33,10.80
2007,02,01,13,34,10.80
2007,02,01,13,35,10.80
2007,02,01,13,36,10.70
2007,02,01,13,37,10.60
2007,02,01,13,38,10.60
2007,02,01,13,39,10.60
2007,02,01,13,40,10.60
2007,02,01,13,41,10.60
2007,02,01,13,42,10.60
2007,02,01,13,43,10.60
2007,02,01,13,44,10.60
2007,02,01,13,45,10.60
2007,02,01,13,46,10.60
2007,02,01,13,47,10.60
2007,02,01,13,48,10.60
2007,02,01,13,49,10.60
2007,02,01,13,50,10.60
2007,02,01,13,51,10.60
2007,02,01,13,52,10.60
2007,02,01,13,53,10.60
2007,02,01,13,54,10.60
2007,02,01,13,55,10.60
2007,02,01,13,56,10.60
2007,02,01,13,57,10.60
2007,02,01,13,58,10.60
2007,02,01,13,59,10.70
2007,02,01,14,00,10.70
2007,02,01,14,01,10.70
2007,02,01,14,02,10.70
2007,02,01,14,03,10.60
2007,02,01,14,04,10.60
2007,02,01,14,05,10.60
2007,02,01,14,06,10.60
2007,02,01,14,07,10.60
2007,02,01,14,08,10.60
2007,02,01,14,09,10.60
2007,02,01,14,10,10.60
2007,02,01,14,11,10.60
2007,02,01,14,12,10.60
2007,02,01,14,13,10.60
2007,02,01,14,14,10.60
2007,02,01,14,15,10.60
2007,02,01,14,16,10.60
2007,02,01,14,17,10.60
2007,02,01,14,18,10.60
2007,02,01,14,19,10.60
2007,02,01,14,20,10.60
2007,02,01,14,21,10.70
2007,02,01,14,22,10.70
2007,02,01,14,23,10.70
2007,02,01,14,24,10.80
2007,02,01,14,25,10.80
2007,02,01,14,26,10.80
2007,02,01,14,27,10.70
2007,02,01,14,28,10.60
2007,02,01,14,29,10.60
2007,02,01,14,30,10.60
2007,02,01,14,31,10.60
2007,02,01,14,32,10.50
2007,02,01,14,33,10.40
2007,02,01,14,34,10.40
2007,02,01,14,35,10.30
2007,02,01,14,36,10.30
2007,02,01,14,37,10.30
2007,02,01,14,38,10.20
2007,02,01,14,39,10.20
2007,02,01,14,40,10.20
2007,02,01,14,41,10.20
2007,02,01,14,42,10.20
2007,02,01,14,43,10.20
2007,02,01,14,44,10.20
2007,02,01,14,45,10.20
2007,02,01,14,46,10.30
2007,02,01,14,47,10.30
2007,02,01,14,48,10.30
2007,02,01,14,49,10.30
2007,02,01,14,50,10.30
2007,02,01,14,51,10.30
2007,02,01,14,52,10.30
2007,02,01,14,53,10.30
2007,02,01,14,54,10.30
2007,02,01,14,55,10.30
2007,02,01,14,56,10.30
2007,02,01,14,57,10.20
2007,02,01,14,58,10.20
2007,02,01,14,59,10.20
2007,02,01,15,00,10.20
2007,02,01,15,01,10.20
2007,02,01,15,02,10.10
2007,02,01,15,03,10.10
2007,02,01,15,04,10.10
2007,02,01,15,05,10.10
2007,02,01,15,06,10.10
2007,02,01,15,07,10.10
2007,02,01,15,08,10.10
2007,02,01,15,09,10.10
2007,02,01,15,10,10.10
2007,02,01,15,11,10.10
2007,02,01,15,12,10.10
2007,02,01,15,13,10.10
2007,02,01,15,14,10.10
2007,02,01,15,15,10.10
2007,02,01,15,16,10.10
2007,02,01,15,17,10.10
2007,02,01,15,18,10.10
2007,02,01,15,19,10.10
2007,02,01,15,20,10.10
2007,02,01,15,21,10.10
2007,02,01,15,22,10.10
2007,02,01,15,23,10.10
2007,02,01,15,24,10.10
2007,02,01,15,25,10.10
2007,02,01,15,26,10.10
2007,02,01,15,27,10.20
2007,02,01,15,28,10.20
2007,02,01,15,29,10.20
2007,02,01,15,30,10.20
2007,02,01,15,31,10.20
2007,02,01,15,32,10.20
2007,02,01,15,33,10.20
2007,02,01,15,34,10.20
2007,02,01,15,35,10.20
2007,02,01,15,36,10.20
2007,02,01,15,37,10.20
2007,02,01,15,38,10.20
2007,02,01,15,39,10.20
2007,02,01,15,40,10.20
2007,02,01,15,41,10.20
2007,02,01,15,42,10.10
2007,02,01,15,43,10.10
2007,02,01,15,44,10.10
2007,02,01,15,45,10.10
2007,02,01,15,46,10.10
2007,02,01,15,47,10.10
2007,02,01,15,48,10.10
2007,02,01,15,49,10.10
2007,02,01,15,50,10.00
2007,02,01,15,51,9.90
2007,02,01,15,52,9.90
2007,02,01,15,53,9.90
2007,02,01,15,54,9.90
2007,02,01,15,55,9.90
2007,02,01,15,56,9.80
2007,02,01,15,57,9.80
2007,02,01,15,58,9.80
2007,02,01,15,59,9.80
2007,02,01,16,00,9.80
2007,02,01,16,01,9.80
2007,02,01,16,02,9.80
2007,02,01,16,03,9.80
2007,02,01,16,04,9.80
2007,02,01,16,05,9.80
2007,02,01,16,06,9.80
2007,02,01,16,07,9.80
2007,02,01,16,08,9.70
2007,02,01,16,09,9.70
2007,02,01,16,10,9.70
2007,02,01,16,11,9.70
2007,02,01,16,12,9.70
2007,02,01,16,13,9.60
2007,02,01,16,14,9.60
2007,02,01,16,15,9.60
2007,02,01,16,16,9.50
2007,02,01,16,17,9.50
2007,02,01,16,18,9.50
2007,02,01,16,19,9.40
2007,02,01,16,20,9.40
2007,02,01,16,21,9.40
2007,02,01,16,22,9.40
2007,02,01,16,23,9.40
2007,02,01,16,24,9.40
2007,02,01,16,25,9.30
2007,02,01,16,26,9.30
2007,02,01,16,27,9.30
2007,02,01,16,28,9.20
2007,02,01,16,29,9.20
2007,02,01,16,30,9.10
2007,02,01,16,31,9.00
2007,02,01,16,32,9.00
2007,02,01,16,33,8.90
2007,02,01,16,34,8.80
2007,02,01,16,35,8.70
2007,02,01,16,36,8.60
2007,02,01,16,37,8.50
2007,02,01,16,38,8.50
2007,02,01,16,39,8.40
2007,02,01,16,40,8.30
2007,02,01,16,41,8.20
2007,02,01,16,42,8.20
2007,02,01,16,43,8.10
2007,02,01,16,44,8.10
2007,02,01,16,45,8.00
2007,02,01,16,46,7.90
2007,02,01,16,47,7.90
2007,02,01,16,48,7.80
2007,02,01,16,49,7.80
2007,02,01,16,50,7.80
2007,02,01,16,51,7.70
2007,02,01,16,52,7.60
2007,02,01,16,53,7.60
2007,02,01,16,54,7.50
2007,02,01,16,55,7.40
2007,02,01,16,56,7.40
2007,02,01,16,57,7.30
2007,02,01,16,58,7.30
2007,02,01,16,59,7.20
2007,02,01,17,00,7.20
2007,02,01,17,01,7.10
2007,02,01,17,02,7.00
2007,02,01,17,03,6.90
2007,02,01,17,04,6.90
2007,02,01,17,05,6.80
2007,02,01,17,06,6.80
2007,02,01,17,07,6.70
2007,02,01,17,08,6.60
2007,02,01,17,09,6.50
2007,02,01,17,10,6.40
2007,02,01,17,11,6.40
2007,02,01,17,12,6.30
2007,02,01,17,13,6.20
2007,02,01,17,14,6.20
2007,02,01,17,15,6.20
2007,02,01,17,16,6.20
2007,02,01,17,17,6.20
2007,02,01,17,18,6.10
2007,02,01,17,19,6.10
2007,02,01,17,20,6.00
2007,02,01,17,21,6.00
2007,02,01,17,22,5.90
2007,02,01,17,23,5.90
2007,02,01,17,24,5.80
2007,02,01,17,25,5.80
2007,02,01,17,26,5.70
2007,02,01,17,27,5.70
2007,02,01,17,28,5.70
2007,02,01,17,29,5.70
2007,02,01,17,30,5.60
2007,02,01,17,31,5.60
2007,02,01,17,32,5.60
2007,02,01,17,33,5.50
2007,02,01,17,34,5.50
2007,02,01,17,35,5.50
2007,02,01,17,36,5.40
2007,02,01,17,37,5.40
2007,02,01,17,38,5.30
2007,02,01,17,39,5.30
2007,02,01,17,40,5.30
2007,02,01,17,41,5.30
2007,02,01,17,42,5.30
2007,02,01,17,43,5.20
2007,02,01,17,44,5.20
2007,02,01,17,45,5.10
2007,02,01,17,46,5.10
2007,02,01,17,47,5.10
2007,02,01,17,48,5.10
2007,02,01,17,49,4.90
2007,02,01,17,50,4.90
2007,02,01,17,51,4.90
2007,02,01,17,52,4.80
2007,02,01,17,53,4.80
2007,02,01,17,54,4.70
2007,02,01,17,55,4.70
2007,02,01,17,56,4.60
2007,02,01,17,57,4.60
2007,02,01,17,58,4.60
2007,02,01,17,59,4.60
2007,02,01,18,00,4.60
2007,02,01,18,01,4.60
2007,02,01,18,02,4.60
2007,02,01,18,03,4.60
2007,02,01,18,04,4.60
2007,02,01,18,05,4.60
2007,02,01,18,06,4.60
2007,02,01,18,07,4.60
2007,02,01,18,08,4.50
2007,02,01,18,09,4.50
2007,02,01,18,10,4.40
2007,02,01,18,11,4.40
2007,02,01,18,12,4.40
2007,02,01,18,13,4.30
2007,02,01,18,14,4.30
2007,02,01,18,15,4.20
2007,02,01,18,16,4.20
2007,02,01,18,17,4.20
2007,02,01,18,18,4.20
2007,02,01,18,19,4.20
2007,02,01,18,20,4.20
2007,02,01,18,21,4.10
2007,02,01,18,22,4.10
2007,02,01,18,23,4.10
2007,02,01,18,24,4.10
2007,02,01,18,25,4.10
2007,02,01,18,26,4.10
2007,02,01,18,27,4.00
2007,02,01,18,28,4.00
2007,02,01,18,29,4.00
2007,02,01,18,30,3.90
2007,02,01,18,31,3.90
2007,02,01,18,32,3.80
2007,02,01,18,33,3.80
2007,02,01,18,34,3.80
2007,02,01,18,35,3.90
2007,02,01,18,36,3.90
2007,02,01,18,37,3.90
2007,02,01,18,38,4.00
2007,02,01,18,39,4.00
2007,02,01,18,40,4.00
2007,02,01,18,41,4.00
2007,02,01,18,42,3.90
2007,02,01,18,43,3.80
2007,02,01,18,44,3.70
2007,02,01,18,45,3.70
2007,02,01,18,46,3.70
2007,02,01,18,47,3.80
2007,02,01,18,48,3.80
2007,02,01,18,49,3.80
2007,02,01,18,50,3.80
2007,02,01,18,51,3.80
2007,02,01,18,52,3.70
2007,02,01,18,53,3.70
2007,02,01,18,54,3.70
2007,02,01,18,55,3.70
2007,02,01,18,56,3.70
2007,02,01,18,57,3.70
2007,02,01,18,58,3.60
2007,02,01,18,59,3.60
2007,02,01,19,00,3.70
2007,02,01,19,01,3.70
2007,02,01,19,02,3.80
2007,02,01,19,03,3.80
2007,02,01,19,04,3.70
2007,02,01,19,05,3.70
2007,02,01,19,06,3.60
2007,02,01,19,07,3.60
2007,02,01,19,08,3.60
2007,02,01,19,09,3.60
2007,02,01,19,10,3.60
2007,02,01,19,11,3.60
2007,02,01,19,12,3.60
2007,02,01,19,13,3.60
2007,02,01,19,14,3.60
2007,02,01,19,15,3.50
2007,02,01,19,16,3.50
2007,02,01,19,17,3.40
2007,02,01,19,18,3.40
2007,02,01,19,19,3.30
2007,02,01,19,20,3.20
2007,02,01,19,21,3.20
2007,02,01,19,22,3.20
2007,02,01,19,23,3.20
2007,02,01,19,24,3.10
2007,02,01,19,25,3.10
2007,02,01,19,26,3.10
2007,02,01,19,27,3.10
2007,02,01,19,28,3.00
2007,02,01,19,29,2.90
2007,02,01,19,30,2.90
2007,02,01,19,31,2.90
2007,02,01,19,32,2.90
2007,02,01,19,33,2.90
2007,02,01,19,34,2.90
2007,02,01,19,35,2.90
2007,02,01,19,36,2.90
2007,02,01,19,37,2.90
2007,02,01,19,38,2.90
2007,02,01,19,39,2.90
2007,02,01,19,40,2.90
2007,02,01,19,41,2.90
2007,02,01,19,42,2.90
2007,02,01,19,43,2.80
2007,02,01,19,44,2.80
2007,02,01,19,45,2.70
2007,02,01,19,46,2.70
2007,02,01,19,47,2.70
2007,02,01,19,48,2.70
2007,02,01,19,49,2.70
2007,02,01,19,50,2.70
2007,02,01,19,51,2.70
2007,02,01,19,52,2.60
2007,02,01,19,53,2.60
2007,02,01,19,54,2.60
2007,02,01,19,55,2.60
2007,02,01,19,56,2.60
2007,02,01,19,57,2.50
2007,02,01,19,58,2.50
2007,02,01,19,59,2.50
2007,02,01,20,00,2.50
2007,02,01,20,01,2.50
2007,02,01,20,02,2.40
2007,02,01,20,03,2.40
2007,02,01,20,04,2.40
2007,02,01,20,05,2.40
2007,02,01,20,06,2.30
2007,02,01,20,07,2.20
2007,02,01,20,08,2.20
2007,02,01,20,09,2.20
2007,02,01,20,10,2.10
2007,02,01,20,11,2.00
2007,02,01,20,12,2.00
2007,02,01,20,13,1.90
2007,02,01,20,14,1.80
2007,02,01,20,15,1.80
2007,02,01,20,16,1.70
2007,02,01,20,17,1.70
2007,02,01,20,18,1.60
2007,02,01,20,19,1.50
2007,02,01,20,20,1.50
2007,02,01,20,21,1.40
2007,02,01,20,22,1.40
2007,02,01,20,23,1.30
2007,02,01,20,24,1.30
2007,02,01,20,25,1.20
2007,02,01,20,26,1.20
2007,02,01,20,27,1.10
2007,02,01,20,28,1.10
2007,02,01,20,29,1.00
2007,02,01,20,30,1.00
2007,02,01,20,31,0.90
2007,02,01,20,32,0.90
2007,02,01,20,33,0.90
2007,02,01,20,34,0.80
2007,02,01,20,35,0.80
2007,02,01,20,36,0.80
2007,02,01,20,37,0.80
2007,02,01,20,38,0.80
2007,02,01,20,39,0.80
2007,02,01,20,40,0.80
2007,02,01,20,41,0.80
2007,02,01,20,42,0.70
2007,02,01,20,43,0.70
2007,02,01,20,44,0.70
2007,02,01,20,45,0.60
2007,02,01,20,46,0.60
2007,02,01,20,47,0.60
2007,02,01,20,48,0.60
2007,02,01,20,49,0.60
2007,02,01,20,50,0.60
2007,02,01,20,51,0.50
2007,02,01,20,52,0.50
2007,02,01,20,53,0.50
2007,02,01,20,54,0.50
2007,02,01,20,55,0.40
2007,02,01,20,56,0.40
2007,02,01,20,57,0.40
2007,02,01,20,58,0.40
2007,02,01,20,59,0.40
2007,02,01,21,00,0.40
2007,02,01,21,01,0.40
2007,02,01,21,02,0.40
2007,02,01,21,03,0.30
2007,02,01,21,04,0.30
2007,02,01,21,05,0.30
2007,02,01,21,06,0.20
2007,02,01,21,07,0.20
2007,02,01,21,08,0.10
2007,02,01,21,09,0.10
2007,02,01,21,10,0.10
2007,02,01,21,11,0.10
2007,02,01,21,12,0.00
2007,02,01,21,13,-0.10
2007,02,01,21,14,-0.10
2007,02,01,21,15,-0.10
2007,02,01,21,16,-0.10
2007,02,01,21,17,-0.10
2007,02,01,21,18,-0.10
2007,02,01,21,19,-0.10
2007,02,01,21,20,-0.20
2007,02,01,21,21,-0.20
2007,02,01,21,22,-0.20
2007,02,01,21,23,-0.20
2007,02,01,21,24,-0.20
2007,02,01,21,25,-0.20
2007,02,01,21,26,-0.20
2007,02,01,21,27,-0.20
2007,02,01,21,28,-0.20
2007,02,01,21,29,-0.20
2007,02,01,21,30,-0.20
2007,02,01,21,31,-0.20
2007,02,01,21,32,-0.20
2007,02,01,21,33,-0.20
2007,02,01,21,34,-0.20
2007,02,01,21,35,-0.30
2007,02,01,21,36,-0.30
2007,02,01,21,37,-0.30
2007,02,01,21,38,-0.30
2007,02,01,21,39,-0.30
2007,02,01,21,40,-0.40
2007,02,01,21,41,-0.40
2007,02,01,21,42,-0.40
2007,02,01,21,43,-0.40
2007,02,01,21,44,-0.40
2007,02,01,21,45,-0.40
2007,02,01,21,46,-0.40
2007,02,01,21,47,-0.40
2007,02,01,21,48,-0.40
2007,02,01,21,49,-0.40
2007,02,01,21,50,-0.40
2007,02,01,21,51,-0.40
2007,02,01,21,52,-0.40
2007,02,01,21,53,-0.40
2007,02,01,21,54,-0.40
2007,02,01,21,55,-0.40
2007,02,01,21,56,-0.40
2007,02,01,21,57,-0.40
2007,02,01,21,58,-0.40
2007,02,01,21,59,-0.40
2007,02,01,22,00,-0.40
2007,02,01,22,01,-0.40
2007,02,01,22,02,-0.40
2007,02,01,22,03,-0.40
2007,02,01,22,04,-0.40
2007,02,01,22,05,-0.40
2007,02,01,22,06,-0.40
2007,02,01,22,07,-0.40
2007,02,01,22,08,-0.40
2007,02,01,22,09,-0.40
2007,02,01,22,10,-0.40
2007,02,01,22,11,-0.40
2007,02,01,22,12,-0.40
2007,02,01,22,13,-0.40
2007,02,01,22,14,-0.40
2007,02,01,22,15,-0.40
2007,02,01,22,16,-0.40
2007,02,01,22,17,-0.40
2007,02,01,22,18,-0.40
2007,02,01,22,19,-0.60
2007,02,01,22,20,-0.60
2007,02,01,22,21,-0.60
2007,02,01,22,22,-0.60
2007,02,01,22,23,-0.60
2007,02,01,22,24,-0.60
2007,02,01,22,25,-0.60
2007,02,01,22,26,-0.60
2007,02,01,22,27,-0.60
2007,02,01,22,28,-0.60
2007,02,01,22,29,-0.60
2007,02,01,22,30,-0.70
2007,02,01,22,31,-0.70
2007,02,01,22,32,-0.70
2007,02,01,22,33,-0.70
2007,02,01,22,34,-0.70
2007,02,01,22,35,-0.70
2007,02,01,22,36,-0.70
2007,02,01,22,37,-0.70
2007,02,01,22,38,-0.70
2007,02,01,22,39,-0.70
2007,02,01,22,40,-0.70
2007,02,01,22,41,-0.80
2007,02,01,22,42,-0.80
2007,02,01,22,43,-0.80
2007,02,01,22,44,-0.80
2007,02,01,22,45,-0.80
2007,02,01,22,46,-0.80
2007,02,01,22,47,-0.80
2007,02,01,22,48,-0.80
2007,02,01,22,49,-0.90
2007,02,01,22,50,-0.90
2007,02,01,22,51,-0.90
2007,02,01,22,52,-0.90
2007,02,01,22,53,-0.90
2007,02,01,22,54,-0.90
2007,02,01,22,55,-1.00
2007,02,01,22,56,-1.10
2007,02,01,22,57,-1.10
2007,02,01,22,58,-1.10
2007,02,01,22,59,-1.10
2007,02,01,23,00,-1.10
2007,02,01,23,01,-1.10
2007,02,01,23,02,-1.10
2007,02,01,23,03,-1.20
2007,02,01,23,04,-1.20
2007,02,01,23,05,-1.20
2007,02,01,23,06,-1.20
2007,02,01,23,07,-1.20
2007,02,01,23,08,-1.30
2007,02,01,23,09,-1.30
2007,02,01,23,10,-1.30
2007,02,01,23,11,-1.30
2007,02,01,23,12,-1.40
2007,02,01,23,13,-1.40
2007,02,01,23,14,-1.40
2007,02,01,23,15,-1.40
2007,02,01,23,16,-1.40
2007,02,01,23,17,-1.40
2007,02,01,23,18,-1.50
2007,02,01,23,19,-1.50
2007,02,01,23,20,-1.50
2007,02,01,23,21,-1.50
2007,02,01,23,22,-1.50
2007,02,01,23,23,-1.50
2007,02,01,23,24,-1.50
2007,02,01,23,25,-1.50
2007,02,01,23,26,-1.50
2007,02,01,23,27,-1.50
2007,02,01,23,28,-1.50
2007,02,01,23,29,-1.50
2007,02,01,23,30,-1.50
2007,02,01,23,31,-1.50
2007,02,01,23,32,-1.50
2007,02,01,23,33,-1.50
2007,02,01,23,34,-1.50
2007,02,01,23,35,-1.50
2007,02,01,23,36,-1.50
2007,02,01,23,37,-1.50
2007,02,01,23,38,-1.50
2007,02,01,23,39,-1.50
2007,02,01,23,40,-1.50
2007,02,01,23,41,-1.50
2007,02,01,23,42,-1.50
2007,02,01,23,43,-1.50
2007,02,01,23,44,-1.50
2007,02,01,23,45,-1.50
2007,02,01,23,46,-1.50
2007,02,01,23,47,-1.50
2007,02,01,23,48,-1.50
2007,02,01,23,49,-1.50
2007,02,01,23,50,-1.50
2007,02,01,23,51,-1.50
2007,02,01,23,52,-1.50
2007,02,01,23,53,-1.50
2007,02,01,23,54,-1.50
2007,02,01,23,55,-1.50
2007,02,01,23,56,-1.50
2007,02,01,23,57,-1.50
2007,02,01,23,58,-1.60
2007,02,01,23,59,-1.60
